GFSFLT2_500_rhum_006.txt.gz
RH
24 19 15 15 15 12 8 4 2 2 4 4 10 29 39 41 34 30 28 27 20 7 3 3 3 3 4
16 11 10 9 8 5 2 2 5 6 22 44 40 53 45 48 52 52 53 48 39 36 32 7 5 5 5
10 9 8 6 3 2 5 6 13 49 48 49 59 52 53 57 51 53 58 62 70 73 72 63 47 10 9
11 8 4 2 4 5 5 54 57 51 60 60 59 57 58 41 49 58 69 75 89 99 100 98 89 75 55
6 3 4 5 5 30 56 56 74 57 61 72 63 60 55 54 58 67 71 69 72 59 77 96 100 100 88
3 6 5 10 59 59 57 57 69 73 60 82 60 76 63 67 70 54 53 63 61 58 49 60 89 92 71
8 7 23 54 56 63 67 63 69 71 67 89 70 76 69 65 37 30 33 37 44 85 84 64 52 31 41
12 44 56 57 59 66 67 68 77 74 70 80 69 73 58 31 40 42 40 54 58 82 89 88 84 58 54
63 59 66 63 60 63 64 60 68 70 71 79 68 79 40 47 50 67 74 84 87 92 94 96 97 96 97
71 69 72 71 66 56 49 34 28 29 56 83 77 76 45 47 69 70 66 67 72 77 89 100 100 100 100
52 41 37 31 27 25 20 16 16 18 26 76 85 81 42 68 68 62 67 71 84 99 97 100 60 62 75
41 42 40 35 29 26 26 26 23 16 25 62 87 86 53 56 59 82 92 97 94 99 100 94 92 89 82
32 30 30 29 29 33 34 29 27 20 20 38 89 95 55 52 72 76 67 100 94 100 100 96 87 81 89
31 26 24 26 31 36 46 43 32 32 23 26 86 100 71 61 68 85 90 78 87 100 100 100 99 98 89
30 32 41 47 55 45 45 40 27 28 55 46 75 99 73 73 100 97 88 97 100 99 100 100 97 75 94
36 42 51 54 58 68 69 55 39 38 53 59 94 98 72 65 56 97 98 99 100 100 100 99 98 96 81
56 63 76 80 76 66 59 60 55 45 47 58 99 100 87 76 74 80 100 100 100 100 100 92 94 75 82

GFSFLT2_500_rhum_012.txt.gz
RH
33 22 16 13 10 8 7 6 5 5 4 3 2 2 3 4 4 10 33 40 45 53 58 53 44 43 30
17 12 10 8 7 6 6 5 4 3 3 4 5 6 10 28 36 39 50 62 60 59 52 49 54 53 48
11 8 7 6 6 5 4 3 3 5 6 7 12 40 40 41 40 46 61 65 62 63 61 57 60 65 64
8 7 7 5 4 3 4 5 9 18 32 44 44 46 52 49 51 57 65 67 63 57 55 55 46 21 22
7 7 5 3 4 10 14 26 57 54 42 72 51 57 60 59 56 59 66 65 64 61 44 28 24 23 22
7 5 3 6 19 28 40 40 42 66 51 75 53 70 61 62 59 61 70 67 64 58 33 24 29 27 30
4 4 13 38 33 32 32 28 27 26 23 38 52 55 50 46 44 48 64 72 69 47 29 36 40 46 46
6 24 37 27 22 23 25 26 31 30 27 22 27 25 22 19 21 28 44 72 69 40 32 40 45 55 62
35 27 22 29 28 25 23 23 24 26 25 19 22 20 20 22 16 16 27 60 71 38 43 45 50 58 61
20 27 27 25 26 28 28 27 24 23 27 17 19 19 23 26 21 14 25 54 72 42 45 56 64 67 64
17 20 26 33 34 37 38 37 40 41 42 28 27 22 19 26 35 22 18 47 71 46 49 62 81 81 70
24 31 39 45 46 48 53 62 68 57 58 52 40 35 32 28 26 46 34 61 68 47 68 84 100 91 91
40 47 50 50 50 54 63 70 84 71 61 60 49 39 31 22 28 57 80 95 57 62 80 94 96 92 99
47 50 57 69 75 74 77 72 65 81 96 59 50 40 36 36 42 88 100 89 78 82 95 100 100 94 86
51 58 69 82 100 97 94 89 79 63 70 61 54 41 41 61 93 98 79 64 64 81 82 84 100 84 75
59 68 84 97 95 92 86 84 72 65 49 42 46 41 50 84 58 75 64 74 84 74 58 63 75 58 52
64 80 96 100 91 74 87 88 81 54 39 42 34 50 100 100 48 60 94 93 91 90 80 80 87 63 72

GFSFLT2_500_rhum_018.txt.gz
RH
49 54 46 35 24 23 21 17 13 12 13 10 7 5 4 3 2 3 3 4 6 8 9 10 10 9 7
54 44 30 26 23 20 13 10 10 14 10 5 4 3 3 4 6 12 16 22 26 25 30 32 32 31 27
40 28 26 24 14 10 9 13 15 10 7 4 5 10 13 19 23 24 22 23 23 30 39 42 39 36 39
29 28 25 14 10 13 16 13 10 6 7 9 10 10 10 11 12 14 15 15 23 27 48 52 50 50 54
30 26 15 13 16 16 11 7 5 10 9 10 13 14 17 17 16 15 13 16 22 23 50 55 55 54 58
26 18 17 16 13 8 5 7 11 17 18 20 22 25 30 29 26 22 18 15 15 23 30 49 49 49 52
21 21 20 14 8 6 11 16 16 17 16 14 24 33 35 32 30 27 25 20 15 19 25 32 36 31 41
28 24 16 9 7 13 19 18 19 23 32 23 40 46 45 42 43 51 52 43 21 15 22 25 24 18 24
27 19 9 8 13 15 19 20 25 36 66 46 60 62 63 58 85 94 78 53 30 18 17 23 21 17 14
16 7 11 14 20 22 26 33 39 44 76 51 67 65 54 64 79 100 100 65 37 28 18 20 25 18 17
5 14 18 28 29 37 43 46 46 58 74 52 49 48 51 54 53 69 83 61 46 40 21 18 22 20 20
15 18 29 34 45 48 46 40 34 27 43 45 52 59 49 45 43 60 60 52 53 41 26 19 20 22 23
21 32 35 49 55 38 40 22 23 30 37 40 40 38 40 40 39 49 46 58 48 30 22 22 35 56 73
37 40 48 61 40 45 19 19 25 34 39 34 38 38 45 66 80 66 59 58 46 45 78 96 89 69 55
38 42 61 46 56 22 15 18 22 26 35 43 56 76 87 78 89 90 94 94 90 94 73 70 72 63 44
42 52 60 46 63 17 16 26 50 76 87 98 100 100 95 74 61 80 92 85 82 78 71 77 100 60 55
48 63 45 72 75 71 79 87 92 89 79 77 81 85 98 100 90 68 94 100 100 98 77 64 68 80 73

GFSFLT2_500_rhum_021.txt.gz
RH
63 71 61 59 65 57 44 32 27 27 25 22 19 21 20 13 8 6 4 3 3 3 4 4 5 6 6
78 61 68 72 56 43 32 31 29 26 22 22 22 14 9 6 4 4 4 6 7 7 8 11 18 20 21
64 80 73 58 44 36 32 32 29 25 25 20 13 8 6 5 7 9 9 9 9 8 8 8 9 15 20
88 73 60 47 40 37 37 31 28 27 21 13 8 6 10 12 13 12 13 12 10 10 12 14 12 13 17
73 63 52 45 42 41 40 33 30 21 12 9 9 16 17 16 18 21 22 19 17 20 24 24 21 16 22
64 54 50 47 47 44 36 30 15 10 9 15 18 18 22 24 35 41 40 38 43 40 31 26 22 20 18
57 54 52 53 46 36 19 11 8 9 15 18 19 26 36 46 58 55 59 65 62 54 40 33 34 34 19
60 59 57 48 25 14 8 6 12 18 24 19 26 31 30 31 64 82 92 82 72 66 49 49 47 47 30
66 66 42 23 14 7 8 13 17 23 38 26 22 15 21 37 62 83 71 64 68 69 57 42 51 53 31
72 42 27 12 6 11 15 20 21 24 32 11 15 20 22 47 69 84 79 76 74 75 54 44 51 52 34
39 22 9 6 18 23 30 28 27 26 13 11 15 22 25 27 39 52 55 55 50 49 45 44 48 46 29
14 8 11 23 34 36 39 33 32 11 12 13 26 41 53 63 50 45 42 42 40 42 42 46 46 37 27
6 20 29 37 40 44 40 42 14 14 26 46 57 66 69 69 86 91 82 83 70 76 84 88 70 29 25
30 40 39 45 47 38 57 40 44 63 70 67 63 56 54 54 63 80 90 91 91 91 97 94 94 61 32
43 44 46 49 46 53 77 79 76 79 86 84 71 79 82 69 60 79 94 87 75 75 74 78 68 61 62
41 43 45 50 36 66 79 81 81 79 66 81 99 100 99 97 61 56 82 95 92 86 70 74 92 55 43
42 43 51 40 32 52 80 88 93 80 74 75 88 93 92 100 100 78 52 65 88 100 88 69 90 99 34

GFSFLT2_500_rhum_027.txt.gz
RH
98 98 96 97 93 80 82 69 62 61 58 54 61 64 61 52 48 47 46 44 36 28 24 19 18 16 13
99 98 98 99 94 97 95 75 64 62 72 69 59 55 53 52 49 47 42 32 29 27 23 18 15 11 8
94 100 99 100 97 95 80 76 78 74 61 52 55 61 55 48 47 47 42 41 37 27 22 16 9 6 7
99 100 100 100 85 60 62 62 58 71 63 55 62 62 61 54 57 51 40 29 19 13 8 8 10 13 15
99 100 100 96 52 32 26 21 36 55 51 62 61 64 65 51 32 23 18 11 8 9 10 12 11 12 14
98 78 22 17 9 9 8 11 21 45 38 49 48 31 22 20 17 10 12 13 11 12 10 17 27 23 19
14 7 8 6 6 5 6 7 8 10 9 9 9 9 10 11 18 24 20 16 12 12 28 48 49 42 34
11 9 6 5 4 5 6 8 9 7 5 4 6 10 17 37 40 29 18 10 20 36 39 44 56 51 35
4 4 4 5 6 6 5 4 3 4 7 7 26 32 34 51 30 17 28 42 42 42 39 43 59 65 60
6 6 5 4 3 3 4 6 9 26 25 25 40 37 38 94 84 71 54 43 43 44 48 55 63 74 83
5 4 3 4 5 7 13 20 27 31 25 31 63 68 62 63 99 64 52 62 66 68 63 60 63 68 82
6 7 10 14 18 24 26 30 29 24 33 55 59 56 55 50 57 80 74 74 72 69 64 76 66 63 74
10 12 16 19 25 30 31 36 26 23 38 52 55 56 45 51 56 64 63 87 77 71 68 81 78 76 81
24 25 26 26 27 32 38 39 29 26 34 48 57 59 55 47 47 61 72 60 65 77 77 96 99 91 85
31 36 38 39 37 40 40 42 36 30 29 31 44 55 57 52 74 86 74 89 89 87 80 85 90 70 63
40 42 44 45 48 46 43 44 42 38 27 22 25 35 47 84 87 75 75 90 100 100 97 100 100 90 66
50 50 47 48 54 51 48 43 48 46 32 23 22 28 45 80 100 74 77 90 94 100 95 100 100 100 97

GFSFLT2_500_rhum_033.txt.gz
RH
98 96 85 91 98 97 90 75 91 76 77 71 72 71 74 96 95 94 90 86 92 94 86 71 55 29 21
99 73 50 66 77 60 64 87 98 95 84 69 59 54 75 83 85 89 100 99 90 75 60 37 20 11 9
97 70 71 85 88 98 89 99 90 78 76 75 80 88 99 99 96 84 69 47 27 11 7 6 6 7 9
47 49 98 95 97 93 98 94 82 80 70 60 51 25 17 14 8 4 3 3 4 4 4 6 7 7 7
100 100 98 100 90 75 60 33 11 5 5 4 4 3 3 3 4 4 4 5 5 6 5 4 4 4 4
73 85 75 55 53 56 31 14 6 4 3 3 4 4 4 5 5 5 5 4 3 3 4 6 10 14 20
81 76 56 28 8 4 4 4 4 6 5 7 6 6 5 4 4 5 6 9 11 11 13 17 18 18 18
30 19 8 5 4 4 5 8 10 10 10 7 6 8 14 16 16 17 18 18 20 21 32 42 40 41 40
8 7 6 5 6 10 12 15 16 16 14 10 11 12 18 21 20 24 36 39 38 39 38 32 33 38 48
6 4 6 9 13 16 18 21 22 21 19 19 17 16 21 27 24 32 44 48 49 47 39 40 48 48 51
4 7 12 16 20 22 24 25 25 24 23 23 29 28 27 20 30 29 39 49 56 55 47 48 47 58 55
10 16 22 23 23 26 29 30 31 29 28 25 28 28 31 29 20 27 27 33 46 48 52 69 72 64 64
16 24 25 26 28 30 32 33 36 34 32 29 31 30 29 28 20 25 23 30 32 49 74 79 72 76 89
25 27 30 33 35 37 38 36 41 43 40 34 35 32 28 29 29 28 29 22 24 57 80 80 86 97 96
31 32 35 38 40 42 45 44 39 45 52 48 46 40 35 34 33 36 25 19 24 77 86 90 96 87 84
38 36 38 39 42 46 50 53 46 44 56 57 54 51 45 44 35 42 33 20 30 74 80 83 100 96 93
51 50 49 50 47 50 58 57 61 48 57 60 54 46 38 34 44 41 30 21 34 67 91 90 98 100 96

GFSFLT2_500_rhum_036.txt.gz
RH
96 97 98 96 98 99 98 95 82 63 69 79 75 74 85 80 77 66 60 54 56 51 46 57 60 61 64
99 98 99 96 98 99 97 77 49 87 82 76 74 67 71 71 70 63 59 56 55 57 61 60 67 70 72
98 99 97 97 86 62 56 76 99 95 86 91 84 68 67 43 26 16 8 8 7 7 8 9 10 9 9
98 97 71 55 45 44 82 68 62 64 61 54 29 25 24 18 17 14 7 4 4 3 3 3 3 3 4
64 49 41 35 44 56 52 47 38 28 17 5 4 4 4 4 4 4 4 4 4 4 4 4 5 5 4
38 42 57 68 77 40 37 25 9 7 6 4 4 5 5 5 6 7 7 6 6 5 5 5 6 7 8
70 64 50 48 15 11 9 7 5 5 5 7 7 11 11 12 12 10 9 8 8 8 8 10 19 28 26
46 24 13 10 8 6 5 5 6 8 8 15 14 15 16 18 17 13 11 12 12 10 13 30 41 42 43
17 12 8 8 7 6 6 8 14 16 16 15 16 17 22 27 25 22 21 20 16 16 30 38 40 40 38
12 10 8 7 7 6 11 16 18 19 17 20 22 19 24 36 34 32 31 24 17 22 33 39 40 35 35
14 12 10 8 7 9 14 19 23 27 26 25 31 29 28 30 61 47 39 31 23 21 25 34 38 34 30
15 15 13 10 9 17 21 20 26 31 33 33 34 33 35 34 43 57 44 42 35 26 24 26 31 40 51
15 14 10 10 15 26 24 26 28 30 33 37 37 34 36 35 35 48 32 38 32 30 23 20 26 45 59
14 10 10 14 31 34 32 35 39 38 41 44 46 38 37 42 40 42 37 25 30 28 20 18 33 63 62
11 13 19 25 46 49 48 49 51 50 55 59 56 49 37 43 41 44 32 27 24 25 20 20 41 72 61
15 22 28 32 50 58 50 44 54 56 54 67 71 58 50 55 44 44 41 28 31 30 24 26 40 83 82
23 33 36 38 41 43 43 41 56 60 60 70 80 62 56 44 53 54 35 29 30 29 27 26 52 89 98

GFSFLT2_500_rhum_039.txt.gz
RH
71 84 88 98 100 98 95 97 98 98 98 97 93 90 88 72 61 74 61 62 55 48 46 53 60 61 52
92 98 100 100 97 97 97 99 99 97 96 94 92 81 72 63 55 57 54 52 45 43 44 46 42 40 40
92 100 99 98 93 97 98 97 90 91 68 46 42 48 52 51 50 43 39 35 25 23 19 17 16 20 18
100 100 99 99 98 98 97 87 60 55 59 60 45 29 24 24 16 8 7 6 5 5 4 4 4 4 4
98 97 96 97 98 92 77 59 38 44 30 16 10 7 7 5 5 4 4 4 4 4 4 4 4 4 4
87 94 79 60 64 47 33 13 8 10 8 7 8 5 5 4 4 5 6 7 8 8 8 9 9 8 7
81 91 82 53 24 11 12 10 8 8 8 6 6 5 6 9 11 13 13 13 13 14 16 13 11 11 11
30 22 21 18 16 12 11 11 10 9 7 6 7 9 13 16 16 16 16 17 17 18 19 19 18 16 15
23 23 24 22 18 15 17 16 13 11 9 9 12 16 19 23 23 22 20 19 19 20 22 22 20 16 22
26 25 21 17 15 14 16 18 16 13 12 12 14 15 19 30 31 29 25 22 23 26 25 24 17 18 24
36 36 27 24 15 11 14 16 15 13 14 21 24 23 21 27 48 40 34 31 33 33 29 27 23 22 20
45 42 38 31 25 21 15 12 14 22 30 30 30 29 26 26 43 51 41 45 48 42 40 34 29 27 22
46 40 34 27 20 15 14 18 28 36 43 44 43 43 36 30 41 56 40 59 58 48 44 35 30 28 24
42 39 25 15 15 17 22 28 34 48 54 55 48 42 40 34 36 56 55 41 52 49 43 36 34 30 25
23 16 14 16 19 23 29 35 38 48 54 43 38 34 34 37 41 61 62 51 42 43 37 31 34 30 24
7 8 12 20 29 36 44 50 48 50 52 51 49 41 35 47 51 67 69 51 41 38 31 24 32 35 27
8 8 12 31 44 47 55 64 64 60 61 60 53 37 49 53 79 92 66 57 38 38 32 26 27 37 33

GFSFLT2_500_rhum_042.txt.gz
RH
98 100 98 77 88 94 99 99 99 94 96 98 99 99 98 99 98 95 93 92 94 92 90 71 61 56 52
100 100 98 95 87 100 95 100 100 96 98 98 91 86 68 89 94 96 90 89 90 80 72 51 49 50 48
99 100 100 100 99 100 99 98 99 95 84 97 93 74 54 57 61 62 50 44 54 43 34 38 35 32 28
68 97 100 100 100 79 82 83 94 98 92 88 78 48 34 36 24 17 13 9 8 9 9 10 9 9 9
58 69 98 97 84 70 80 85 77 75 49 52 58 14 8 9 9 9 9 9 8 8 7 5 4 4 3
66 71 75 79 80 90 90 90 64 22 9 10 8 8 10 9 8 8 8 8 7 6 5 5 5 6 6
80 80 71 59 52 34 21 17 14 14 15 16 17 16 16 15 15 12 9 8 9 10 11 12 12 12 12
22 23 22 23 23 24 23 22 20 18 17 16 15 17 18 18 15 13 12 13 13 14 15 17 17 17 17
34 34 33 31 32 36 37 27 19 18 13 12 13 14 15 15 17 17 18 20 19 16 16 21 22 20 21
43 43 43 45 46 45 44 42 40 36 32 25 16 13 14 19 22 24 25 24 22 18 17 22 24 22 24
45 48 48 46 46 45 42 41 38 30 25 16 15 16 21 35 37 38 37 34 28 22 19 22 26 24 25
43 42 38 28 19 19 20 18 15 15 16 18 22 27 35 47 54 56 52 46 37 30 28 29 30 27 23
38 26 15 11 9 7 7 8 11 17 24 31 34 38 54 64 63 55 51 53 47 39 41 47 41 34 32
26 17 11 7 6 7 8 9 14 28 33 40 49 51 52 50 42 44 45 40 65 51 49 62 53 43 40
21 13 7 6 8 8 8 9 13 38 49 50 56 58 54 49 48 53 51 55 55 51 64 66 64 47 46
26 13 8 8 9 9 10 10 10 27 56 60 66 69 64 63 64 58 65 58 65 60 65 49 59 50 44
20 12 9 10 11 10 12 12 11 16 54 68 62 56 55 57 57 73 74 80 64 70 50 46 46 48 42

GFSFLT2_500_rhum_045.txt.gz
RH
58 69 79 100 98 96 98 88 98 100 98 96 99 99 97 95 95 97 96 94 99 98 98 98 98 98 97
63 68 66 77 98 98 100 100 97 100 94 100 92 89 99 99 93 86 92 91 76 82 94 97 100 98 97
55 39 33 50 100 100 100 99 100 100 86 88 81 83 93 96 93 86 74 69 56 55 55 66 67 81 84
50 42 32 35 66 94 86 71 68 86 84 80 80 77 100 90 77 72 55 38 32 16 10 10 9 10 10
70 54 49 37 56 68 65 66 78 82 82 80 74 63 56 41 17 12 9 8 10 9 8 8 8 8 9
28 44 45 44 42 42 38 21 17 16 18 17 14 12 14 15 16 16 17 16 16 16 15 15 14 13 12
28 29 29 28 28 26 25 25 26 28 32 32 30 28 19 14 14 14 13 14 16 19 21 20 19 15 10
37 39 39 39 40 40 41 42 43 44 45 45 44 37 28 25 20 16 14 14 14 13 15 17 16 16 17
34 35 38 39 41 39 39 37 35 32 33 36 38 39 38 35 27 20 16 14 14 17 21 24 25 23 20
29 30 30 30 29 28 23 17 10 8 8 9 11 9 9 10 13 17 19 20 24 27 32 36 34 31 26
30 28 23 22 25 23 22 18 10 7 6 6 7 7 8 13 22 25 28 30 41 48 50 48 47 43 36
28 21 21 24 28 22 16 11 7 6 7 7 7 8 10 21 32 44 48 54 63 65 64 53 35 31 33
28 25 26 27 27 26 19 12 8 8 8 8 8 9 9 16 37 58 76 97 92 86 71 48 40 36 31
32 31 32 35 34 25 18 12 9 10 9 8 9 10 10 18 43 62 92 97 100 100 79 55 51 47 40
41 38 37 41 42 30 22 13 11 12 10 10 10 11 12 15 51 66 78 90 97 98 81 62 61 56 59
43 38 48 48 44 33 27 13 13 13 12 12 12 13 16 23 38 59 72 76 87 83 73 54 50 82 67
55 56 57 53 50 39 23 12 13 15 16 14 14 15 22 26 47 80 80 83 70 66 66 62 57 89 77

GFSFLT2_500_rhum_048.txt.gz
RH
17 19 18 23 24 28 91 100 95 83 88 99 98 78 98 96 97 90 98 97 100 88 88 96 89 95 94
15 25 12 17 18 21 68 100 100 100 99 100 90 92 100 100 98 93 99 98 98 72 92 100 99 90 85
12 29 24 21 21 24 26 75 67 81 59 59 100 100 100 100 87 86 83 94 98 92 85 79 77 84 80
16 18 30 41 41 44 49 57 62 65 68 77 83 93 95 93 84 82 74 84 87 84 71 47 35 28 24
22 23 22 23 24 27 28 28 23 23 24 26 26 25 20 16 20 24 22 17 15 11 10 9 8 7 8
24 24 23 23 24 28 29 31 34 35 36 34 33 32 31 32 31 30 29 26 23 24 22 18 18 18 16
26 25 24 23 23 24 25 27 27 27 37 35 33 38 36 33 36 40 42 31 15 12 11 12 13 13 14
30 29 27 25 24 22 22 20 17 17 21 20 15 10 8 8 8 10 17 30 37 38 36 32 28 22 18
35 32 30 27 25 21 18 17 16 18 20 20 19 14 11 8 7 6 6 7 7 7 7 8 10 13 17
35 33 31 28 26 23 21 19 20 20 21 21 19 14 8 8 7 7 7 7 7 8 11 17 22 21 23
38 36 34 32 30 28 26 24 25 25 26 24 18 15 10 8 9 8 7 8 9 11 15 26 35 40 47
45 45 43 40 38 36 35 33 31 28 29 27 23 15 10 10 9 9 10 9 10 12 16 29 47 62 70
49 50 50 47 46 42 34 37 37 34 35 32 26 15 12 11 10 12 12 14 14 12 17 41 65 82 86
55 55 59 58 53 51 50 43 41 40 43 41 28 14 13 13 11 13 17 18 20 20 26 46 62 76 78
68 71 73 74 69 55 46 51 53 55 53 42 21 11 13 15 16 17 19 23 22 28 43 56 76 80 77
83 85 85 88 82 65 63 72 66 60 52 27 11 11 13 16 17 19 26 25 26 29 42 54 71 83 74
91 86 88 90 90 85 86 81 72 64 36 12 11 12 13 16 22 26 30 32 34 37 34 35 49 93 88

GFSFLT2_500_rhum_054.txt.gz
RH
22 27 34 31 13 13 13 10 10 12 18 26 33 41 58 84 98 97 87 82 100 95 93 86 98 93 100
21 31 27 14 16 16 15 14 14 14 14 15 18 27 47 55 79 79 82 100 100 94 92 87 85 96 100
16 14 16 20 20 18 18 19 19 18 17 15 14 15 21 27 52 87 100 95 99 96 90 86 89 92 92
17 20 24 24 24 23 23 24 24 23 21 19 17 14 14 18 25 28 32 44 55 56 61 70 78 85 94
23 26 29 31 33 31 29 28 28 25 23 21 18 17 15 14 13 13 15 17 21 23 25 26 26 35 55
31 40 45 45 45 42 38 34 30 28 25 23 22 21 19 18 16 16 16 15 14 13 13 14 21 32 34
41 46 51 48 45 47 44 38 34 33 32 30 28 27 25 24 21 20 20 19 18 18 17 16 14 11 11
43 45 57 58 52 49 46 41 39 39 36 32 31 30 31 30 27 24 24 24 21 19 19 20 20 15 10
51 66 72 68 58 50 46 46 47 42 37 35 34 35 37 39 36 31 27 29 30 26 23 24 24 23 18
68 69 71 74 73 65 57 58 59 55 50 50 52 52 50 50 50 48 42 36 37 44 42 34 32 27 17
78 81 82 82 83 81 77 75 74 70 70 71 68 63 65 68 66 58 48 52 61 59 51 42 40 30 19
72 78 84 89 92 90 87 86 84 86 88 83 76 75 78 82 80 74 75 83 68 57 58 46 25 13 11
66 74 81 85 88 90 90 90 90 88 83 78 81 86 85 86 89 91 82 74 68 64 53 30 14 11 11
76 81 88 91 92 89 86 86 83 69 70 75 77 76 74 73 69 74 68 71 46 25 18 14 13 12 12
91 94 94 91 89 79 44 19 26 37 41 37 33 32 34 56 81 76 49 29 19 15 16 16 16 15 14
89 93 88 76 37 13 13 14 20 25 25 28 32 47 76 82 66 43 21 15 15 17 21 17 19 18 18
82 70 38 13 14 15 13 16 26 25 24 30 46 58 68 70 30 16 15 15 16 21 23 21 18 25 19

GFSFLT2_500_rhum_057.txt.gz
RH
18 16 17 19 24 20 11 14 15 14 15 16 15 15 13 14 16 38 69 84 91 96 100 100 99 96 94
16 17 16 18 14 13 17 18 17 18 19 19 19 18 17 15 14 13 27 59 87 86 98 100 100 89 94
16 16 14 15 18 20 22 23 25 25 23 22 21 20 18 17 15 14 13 13 25 75 93 90 95 91 87
16 17 18 20 24 28 34 36 35 33 30 27 25 23 19 18 18 17 16 15 14 12 15 23 49 49 42
18 20 22 28 40 45 44 42 42 41 39 35 31 29 27 27 26 24 22 20 18 17 17 15 13 12 13
23 24 28 35 41 40 42 50 50 47 43 41 38 37 36 33 30 27 26 24 22 20 20 20 19 18 16
28 28 30 37 41 41 55 63 57 49 46 43 44 44 39 34 31 28 27 26 25 24 23 23 23 22 21
44 45 46 50 56 60 62 65 67 65 58 52 55 55 52 46 42 39 38 36 34 32 32 30 29 28 29
57 59 60 61 64 67 71 73 74 77 76 73 71 71 69 67 66 63 61 58 54 49 48 48 45 38 34
42 43 46 55 63 67 70 74 78 83 82 84 80 83 86 86 84 80 75 70 66 66 66 63 57 48 47
47 46 45 52 57 61 66 73 77 81 85 87 85 79 75 73 70 69 73 77 82 86 84 79 74 69 75
60 62 65 66 66 70 73 78 84 88 87 74 36 15 12 21 42 60 70 73 67 77 80 76 71 61 58
72 78 82 82 84 85 87 91 91 84 41 12 13 13 13 19 26 31 32 33 35 35 38 51 61 61 57
72 72 74 80 82 86 93 91 58 15 15 19 18 14 19 25 25 32 40 62 69 60 56 54 41 27 18
69 67 69 73 77 78 59 19 15 22 27 28 26 18 21 23 24 33 50 57 58 53 31 14 13 14 14
79 72 71 74 71 28 15 24 28 28 28 30 34 29 22 25 26 45 63 58 40 16 12 10 12 15 16
83 78 79 77 26 22 26 29 25 23 23 24 24 25 20 25 37 82 68 42 17 10 10 12 16 20 20

GFSFLT2_500_rhum_060.txt.gz
RH
14 16 16 15 14 13 12 12 14 16 17 18 19 20 20 19 18 15 13 12 10 18 65 88 100 100 100
16 18 16 15 14 13 14 15 18 21 25 28 28 26 24 23 22 18 16 16 15 13 12 46 83 87 99
19 18 16 14 14 15 16 19 26 35 36 36 35 34 33 28 26 24 22 23 22 20 17 14 13 18 66
22 20 17 18 18 18 21 32 41 40 40 40 41 40 38 37 34 32 32 31 29 26 24 21 18 16 13
25 24 22 22 20 22 28 40 40 36 35 46 49 44 41 39 38 38 36 33 29 27 26 26 24 21 20
30 27 26 25 24 26 32 36 40 44 50 58 58 55 51 47 46 47 45 39 34 30 28 27 26 26 25
39 38 39 43 43 45 51 55 60 58 62 63 66 70 67 64 62 62 62 57 52 48 44 41 38 34 32
39 37 38 46 42 36 45 55 66 68 72 71 75 78 80 82 80 79 75 71 68 66 64 62 59 56 51
27 26 30 32 33 32 34 41 53 60 60 64 77 83 88 85 81 78 72 64 56 56 64 71 71 69 64
34 36 40 43 44 47 50 50 52 58 62 72 79 88 89 84 65 28 11 11 11 10 13 32 71 86 88
39 44 50 52 52 59 63 70 75 77 82 86 87 88 77 28 14 17 17 16 14 15 24 29 34 47 61
53 47 49 54 59 63 67 68 72 78 86 87 81 37 14 19 20 18 18 18 16 23 24 27 32 42 44
64 58 64 66 66 63 60 62 65 69 70 46 15 19 22 18 22 25 29 28 20 23 24 26 42 49 55
71 73 76 73 72 69 63 63 66 62 22 16 22 22 20 21 24 24 25 27 24 22 24 37 59 56 44
79 79 80 79 80 75 69 71 71 27 21 25 24 21 20 19 20 23 22 22 23 21 29 52 56 38 18
78 81 83 84 83 81 84 85 49 21 27 28 22 19 22 25 30 30 30 26 20 19 24 46 42 15 10
84 85 87 84 87 88 92 94 37 17 21 22 19 27 40 51 45 43 46 33 19 18 23 47 28 11 13

GFSFLT2_500_rhum_063.txt.gz
RH
14 13 14 15 16 16 14 12 13 14 15 16 19 24 27 27 27 26 24 23 19 18 19 16 12 28 67
16 16 16 17 18 16 14 13 14 15 17 21 30 31 35 36 35 34 30 27 27 25 26 26 20 15 15
20 20 20 20 19 17 15 16 17 18 22 34 39 40 39 36 40 39 36 35 33 32 33 31 26 21 18
23 25 23 23 23 20 19 20 20 22 27 34 37 37 40 48 49 43 40 38 38 38 35 32 28 25 22
29 30 29 28 27 25 24 25 24 25 28 32 35 45 56 57 57 55 51 47 47 47 45 39 34 31 28
38 37 37 35 35 34 36 40 43 44 46 47 51 55 60 62 64 66 66 64 61 61 62 58 52 46 43
43 46 44 43 45 39 38 36 29 32 30 36 50 62 62 55 56 62 69 74 75 72 69 66 63 61 58
53 50 43 39 34 30 32 32 35 37 36 35 42 52 53 54 60 62 64 66 68 67 61 52 41 29 26
57 48 42 39 35 36 38 41 45 48 52 56 61 65 68 72 75 75 75 72 60 24 12 12 13 12 12
55 51 50 46 43 43 44 49 52 56 63 69 78 83 84 80 81 79 63 22 13 13 10 12 13 15 14
92 98 91 79 65 55 52 56 58 60 60 61 64 72 72 74 58 20 15 16 12 13 15 21 26 26 18
99 97 88 81 70 65 64 64 63 61 58 57 59 64 60 30 16 20 19 16 18 20 26 30 29 32 27
100 98 92 80 73 69 70 70 71 72 68 64 65 62 22 20 26 22 20 23 31 36 37 34 31 25 23
100 95 85 75 74 73 72 74 73 75 72 72 76 44 23 27 28 23 21 23 34 48 52 49 49 36 21
97 93 82 75 71 72 74 81 80 76 78 87 84 42 24 24 23 20 20 33 55 65 64 63 54 36 19
98 92 84 80 79 79 85 82 79 79 82 82 86 48 17 20 21 20 40 61 72 73 65 62 47 23 18
95 96 94 92 93 93 88 81 79 81 82 83 72 19 19 19 26 56 66 79 71 73 66 46 25 19 20

GFSFLT2_500_rhum_066.txt.gz
RH
68 56 26 21 18 15 16 17 16 12 12 12 13 15 18 26 30 34 37 38 36 31 28 25 24 25 21
70 37 23 23 18 20 18 19 16 14 15 14 15 18 25 30 33 35 33 40 43 38 35 33 32 32 28
33 27 28 26 23 24 22 21 19 18 18 18 19 22 29 33 31 32 34 48 48 42 39 38 38 36 32
32 33 30 29 29 26 26 25 23 22 22 22 22 24 27 30 32 42 49 51 54 52 49 46 45 44 38
44 36 36 34 35 33 31 30 29 28 28 30 32 35 39 42 48 49 54 57 57 58 61 61 58 57 56
41 45 56 51 39 40 39 40 41 43 45 39 35 30 28 36 42 47 53 54 53 56 63 70 72 70 68
66 68 79 52 53 48 50 45 45 38 28 27 29 31 33 34 37 41 48 56 60 64 67 71 72 69 64
95 82 73 80 58 55 49 40 36 33 32 36 39 43 46 50 53 57 62 68 73 74 75 72 67 49 25
80 92 90 68 66 60 58 56 49 46 44 44 48 53 58 62 65 66 70 72 73 73 71 42 15 11 9
98 94 80 74 70 81 96 97 88 61 54 57 55 57 57 56 55 52 55 60 61 38 14 15 12 14 16
100 99 95 95 100 99 95 84 72 67 64 63 64 62 58 54 55 54 55 50 22 16 19 17 17 21 24
100 100 100 100 100 100 93 81 75 71 69 67 69 73 70 65 61 60 52 25 20 22 21 22 24 28 35
100 100 100 100 100 95 83 75 72 73 72 71 78 77 75 73 75 73 42 25 25 26 25 21 21 34 47
100 100 100 100 96 87 81 72 69 69 72 76 76 77 80 89 97 76 36 26 22 24 23 20 37 50 59
100 100 100 99 91 86 79 79 78 74 78 78 73 74 81 95 100 93 42 22 18 20 23 50 62 61 58
100 100 98 94 87 85 90 88 90 86 82 82 79 76 82 94 99 92 33 18 19 37 43 45 56 53 58
100 100 100 95 96 92 93 100 100 99 96 94 90 84 85 96 95 27 18 27 37 40 41 31 40 53 22

GFSFLT2_500_rhum_069.txt.gz
RH
68 72 72 70 71 67 37 26 24 20 18 17 14 12 14 14 17 21 26 33 37 34 32 38 38 33 31
91 91 92 88 84 54 31 29 24 23 20 19 16 16 16 16 21 30 34 35 34 32 37 46 43 39 37
95 93 86 66 54 35 34 32 27 26 24 22 20 20 19 20 24 30 31 31 34 45 50 53 48 46 43
61 47 54 38 36 39 37 33 31 31 28 27 25 24 23 24 27 29 33 39 47 54 59 62 63 61 57
67 50 46 49 48 41 39 41 72 37 35 34 32 30 32 34 35 35 31 29 37 47 53 57 59 63 70
49 48 53 57 48 54 63 95 48 62 42 44 46 45 45 34 25 27 29 30 34 40 48 50 53 57 62
61 75 63 50 55 72 90 62 74 58 56 54 52 45 37 36 36 39 42 44 46 49 53 59 66 68 66
93 84 65 62 85 86 74 78 63 58 51 50 52 50 49 49 47 48 51 53 58 64 68 70 73 70 69
98 65 85 100 92 97 85 73 69 60 60 62 62 62 54 53 52 51 53 55 52 52 55 61 64 65 57
76 96 100 99 100 97 90 80 71 91 98 93 80 70 64 63 57 55 56 52 50 52 55 57 58 30 16
99 99 99 100 98 98 100 100 100 96 94 88 79 73 68 66 64 63 62 60 59 57 57 53 26 18 20
100 100 100 100 100 100 100 100 100 98 92 79 74 69 65 62 66 68 70 68 66 66 66 35 21 23 25
100 100 100 100 100 100 100 98 99 93 85 77 71 67 66 67 70 70 72 75 80 81 72 29 26 26 26
100 100 100 100 100 100 99 96 97 86 81 80 79 77 77 78 79 68 61 66 66 78 90 38 27 26 18
92 87 82 97 100 99 100 98 94 93 94 92 89 89 88 89 90 80 73 67 62 71 86 87 39 20 20
92 94 94 100 99 100 100 96 86 83 86 88 91 97 98 100 100 98 91 83 77 86 82 24 19 29 31
100 96 96 97 100 94 94 97 96 94 94 92 86 91 100 100 100 100 100 87 88 100 58 19 31 44 35

GFSFLT2_500_rhum_072.txt.gz
RH
96 100 100 95 97 97 96 97 93 93 53 32 24 21 19 16 14 14 15 17 22 28 32 31 29 30 40
100 99 98 98 100 100 100 95 77 90 55 32 26 23 21 19 18 18 18 22 29 36 36 31 30 35 40
99 100 99 98 93 72 63 87 58 43 36 32 28 27 25 22 21 21 23 26 34 32 32 36 42 42 48
94 92 89 98 98 89 60 53 60 44 49 40 35 40 30 28 26 26 29 28 31 34 39 44 45 46 54
65 74 88 92 94 82 73 85 68 68 41 69 81 44 56 34 33 32 34 39 43 40 36 39 44 49 60
74 77 78 85 82 76 81 76 61 53 73 94 83 86 48 48 54 56 45 38 36 37 40 43 46 56 65
87 93 94 95 85 95 63 54 73 100 100 90 81 68 66 62 56 48 44 46 47 48 51 53 56 61 65
84 92 96 100 100 73 76 91 99 100 100 99 80 71 62 60 59 57 55 53 54 56 56 57 60 64 67
97 86 100 100 100 100 89 100 100 100 100 99 91 91 78 76 78 80 84 74 58 56 56 55 52 51 52
91 94 100 100 97 80 100 100 100 100 100 100 99 100 100 100 94 79 69 64 61 59 59 56 54 53 53
100 100 100 100 86 99 100 98 100 100 100 100 100 99 98 86 75 69 63 61 62 63 68 70 68 62 60
100 100 100 100 100 100 100 100 100 100 100 99 96 95 86 77 69 62 59 59 63 66 70 72 72 73 76
94 96 98 99 100 100 100 89 95 99 100 100 98 91 82 74 70 64 60 63 63 63 66 67 70 80 89
100 100 100 99 89 75 77 81 96 97 98 100 95 91 86 82 84 73 67 69 73 76 73 66 66 68 72
75 71 75 86 85 86 90 93 92 94 99 95 87 82 84 85 86 76 73 77 69 76 86 92 86 75 77
94 93 91 87 90 95 99 100 97 96 98 98 97 96 98 95 94 95 88 86 85 82 85 93 93 76 74
97 94 95 99 100 100 100 100 100 100 100 100 92 76 79 74 72 90 100 100 98 100 90 90 100 97 87

GFSFLT2_500_rhum_075.txt.gz
RH
36 40 64 96 100 95 95 94 100 99 98 98 100 85 89 36 23 19 17 15 15 16 18 24 30 34 33
38 60 90 96 97 100 99 96 92 95 90 98 97 98 87 27 24 21 19 18 18 18 24 29 39 34 31
17 22 44 68 88 95 96 90 91 85 93 83 62 40 33 28 27 30 23 23 23 24 32 36 38 32 34
26 34 46 57 64 75 90 94 89 97 95 80 86 43 69 44 39 36 29 27 27 28 33 32 32 39 43
27 31 44 46 55 73 78 87 94 97 100 97 68 90 63 73 52 48 40 36 34 34 35 38 44 40 38
51 63 64 55 68 85 87 89 90 100 100 100 84 78 100 98 100 83 46 44 48 57 57 44 38 39 40
54 68 65 79 96 97 98 100 100 99 61 52 81 100 100 100 92 75 76 72 65 51 47 46 47 47 50
68 75 82 91 94 100 84 100 100 77 86 100 100 100 100 100 96 78 70 67 61 57 60 62 68 57 56
87 92 95 95 100 100 100 100 56 79 99 100 100 100 100 100 98 92 83 81 75 84 97 98 75 57 55
84 87 94 100 100 100 100 100 100 100 100 100 100 100 100 100 100 100 100 100 99 90 74 69 64 61 60
89 92 99 98 100 100 100 100 98 100 100 100 100 100 100 100 100 100 93 84 76 68 65 62 58 59 63
98 94 97 100 100 100 100 98 100 100 94 94 95 100 100 100 98 89 82 75 67 61 59 57 56 55 58
100 100 100 100 100 100 100 100 85 86 100 93 96 100 100 100 94 84 77 73 69 69 70 66 65 66 64
100 97 98 98 98 91 81 86 92 93 96 98 97 95 99 100 90 83 77 76 76 77 78 77 78 81 84
79 73 73 68 75 79 78 84 92 96 100 100 98 91 95 96 90 84 85 78 74 83 93 94 94 99 99
92 89 90 90 91 91 92 96 99 100 100 100 99 99 100 97 94 72 53 45 39 36 46 81 100 100 100
98 100 100 99 100 100 100 100 100 100 97 96 97 93 88 75 57 38 28 26 24 25 33 52 94 100 83

GFSFLT2_500_rhum_078.txt.gz
RH
38 35 30 26 30 31 40 66 86 98 98 98 100 100 100 98 96 45 66 41 28 22 16 18 18 21 26
18 16 16 16 16 16 20 30 70 83 95 95 95 100 98 100 95 93 79 95 34 27 18 21 24 29 31
17 17 18 17 17 19 28 45 58 72 98 99 91 100 98 100 99 78 40 28 25 40 22 24 30 36 40
16 14 17 20 23 26 35 43 53 65 83 90 94 100 100 77 66 30 38 39 31 32 26 28 33 51 48
19 28 33 34 37 48 57 58 53 71 79 84 94 100 92 82 64 91 94 84 79 45 34 34 37 45 46
34 34 28 37 51 56 64 58 66 78 88 93 100 100 92 84 95 97 99 77 86 84 54 41 41 42 42
32 38 48 54 57 64 68 86 97 94 94 100 100 94 87 85 98 100 100 100 98 80 60 62 69 68 60
47 44 42 53 71 75 88 95 92 100 93 100 100 63 67 92 99 100 98 100 100 98 92 79 69 62 58
50 55 74 86 89 90 97 99 100 100 100 100 81 87 97 100 100 100 100 100 97 90 82 78 78 76 72
56 66 70 75 84 82 92 100 100 100 100 84 85 100 100 100 100 100 100 100 100 99 97 95 99 100 98
64 70 83 83 81 91 94 90 91 100 99 100 99 100 100 98 93 89 100 100 100 100 100 93 79 72 67
69 75 82 83 85 91 92 96 95 98 92 82 94 98 94 90 90 96 100 100 99 95 88 76 67 64 60
75 83 83 86 90 90 89 88 83 76 74 83 92 96 92 100 99 100 100 100 99 87 79 76 72 73 73
79 87 86 93 86 79 74 67 67 74 86 87 92 92 98 100 100 99 100 100 98 93 85 81 80 77 71
80 88 85 89 83 79 82 82 88 96 93 85 85 95 100 98 93 95 100 98 97 92 91 86 68 53 46
80 82 78 84 88 84 87 92 92 92 91 92 98 100 100 100 98 96 94 92 90 79 64 56 45 30 26
94 91 94 94 96 100 100 100 100 100 100 97 98 99 97 94 96 79 69 53 40 32 28 29 33 30 30

GFSFLT2_500_rhum_081.txt.gz
RH
30 30 22 18 18 17 17 17 18 17 17 19 21 39 80 96 99 100 98 100 100 97 39 97 26 19 17
17 17 18 18 17 17 17 16 16 16 19 28 48 57 75 100 98 92 98 100 98 48 88 42 82 34 23
15 14 15 16 15 13 12 12 16 21 28 36 47 66 79 100 99 100 98 100 95 82 73 98 63 26 28
13 14 14 14 15 15 19 28 28 29 32 36 46 60 79 97 99 98 100 100 100 98 88 58 46 30 31
11 10 12 16 19 26 30 26 27 37 42 51 58 68 78 83 82 98 91 74 52 59 71 60 68 31 30
12 16 28 34 32 29 27 32 47 49 50 62 69 86 91 97 100 100 58 52 64 72 87 84 100 51 36
25 32 32 28 32 30 33 33 52 56 66 81 94 98 88 99 100 100 100 99 100 100 99 99 83 68 61
36 30 25 42 38 36 47 57 67 73 82 93 96 96 99 97 96 97 100 98 99 100 100 100 92 77 71
44 37 26 31 38 46 54 65 70 85 95 99 100 93 100 100 100 99 100 100 100 100 100 100 100 100 100
48 46 39 40 47 58 65 66 70 75 80 93 96 99 100 98 100 100 100 100 100 100 100 99 97 97 96
41 49 44 51 56 64 67 71 63 80 87 84 86 99 100 100 100 100 94 94 92 92 100 100 100 100 100
51 49 54 59 60 67 73 76 77 85 84 83 90 96 90 91 91 94 97 98 100 96 96 100 100 100 96
53 50 65 65 62 76 76 78 77 79 79 74 72 74 76 79 85 94 96 100 100 100 100 94 84 79 76
51 51 73 71 70 81 76 75 72 68 63 60 65 74 82 86 89 97 100 100 100 100 100 95 93 88 83
54 63 82 79 80 81 82 85 75 73 70 73 79 80 81 83 88 95 100 99 96 97 97 96 90 86 84
62 74 85 85 86 80 81 82 80 78 79 77 77 81 82 86 92 100 99 98 97 98 100 100 93 81 59
78 82 94 89 90 87 86 89 92 94 91 88 91 96 97 94 98 98 90 86 91 94 88 73 51 30 29

GFSFLT2_500_rhum_084.txt.gz
RH
17 14 12 13 12 12 12 11 13 14 14 12 11 11 19 26 25 28 29 63 100 100 100 100 98 87 83
13 13 14 13 13 12 11 9 8 10 13 13 16 22 29 30 42 47 61 85 100 98 100 100 99 86 99
14 14 12 10 9 8 8 8 10 12 17 20 28 29 33 35 39 60 75 92 88 96 100 100 97 97 49
14 11 11 10 9 7 8 12 16 22 22 25 25 31 39 42 52 55 76 85 83 94 98 99 87 58 62
12 12 10 10 9 9 17 24 23 24 23 24 31 44 46 55 58 60 77 81 93 100 100 100 96 98 99
14 13 10 11 11 16 24 23 22 20 22 30 32 49 56 61 76 83 84 76 100 97 93 98 94 87 58
16 14 14 12 14 18 26 23 26 27 39 38 50 56 70 87 88 81 72 95 97 69 70 94 97 98 91
18 18 16 16 24 36 30 26 29 35 48 55 59 63 86 96 94 100 100 100 99 97 96 100 100 100 100
20 22 30 37 31 48 40 30 23 44 55 58 62 72 81 85 97 96 95 100 98 100 100 98 100 100 100
23 25 31 48 41 44 40 33 41 43 59 72 63 79 86 84 94 100 100 100 94 100 100 100 100 100 100
28 28 41 56 40 42 46 41 38 58 68 61 65 84 84 80 86 99 95 95 94 100 94 92 100 100 100
38 44 53 59 47 50 57 54 50 66 73 67 76 79 74 78 87 91 87 80 83 95 98 100 100 99 99
57 57 57 62 50 51 57 66 61 75 82 80 80 75 79 82 84 85 80 82 85 88 94 100 96 91 100
81 76 74 68 54 60 78 75 68 77 87 86 79 75 74 83 82 84 86 85 84 94 100 100 100 100 99
82 81 73 64 62 67 84 85 77 81 91 81 74 69 70 85 86 83 88 92 100 100 98 95 94 94 91
68 67 65 64 69 75 88 94 84 84 89 77 75 74 76 80 80 82 86 95 100 100 96 89 82 83 86
68 72 71 72 74 87 98 100 88 82 89 92 90 89 90 91 95 89 90 97 100 100 97 88 82 82 80

GFSFLT2_500_rhum_090.txt.gz
RH
95 94 90 75 56 38 26 19 20 18 15 12 10 7 7 6 5 6 8 11 18 23 23 22 21 33 40
66 59 56 40 26 16 14 15 15 13 13 9 9 9 6 6 6 9 16 20 23 24 21 24 32 42 51
48 36 26 15 15 15 14 13 14 14 11 11 8 7 7 8 10 12 12 16 19 20 30 38 40 42 62
31 26 21 14 13 14 13 13 15 13 12 11 9 9 10 9 11 13 12 14 18 23 41 51 47 49 78
48 33 24 15 14 15 16 18 17 14 14 11 10 12 14 16 17 15 14 19 25 37 52 52 56 60 71
36 53 35 22 20 18 22 22 19 16 15 14 12 14 19 21 24 17 23 31 31 48 68 75 69 78 83
61 50 30 26 24 24 28 26 22 19 18 16 14 14 16 25 25 20 33 43 52 59 71 76 80 79 94
57 50 38 30 32 27 28 28 26 24 21 18 15 15 20 27 25 30 39 51 58 66 66 84 92 97 100
72 63 46 40 36 38 32 29 29 28 25 21 17 19 22 26 30 38 46 47 63 65 78 85 97 96 85
66 50 44 38 40 42 39 32 31 34 28 24 20 21 28 34 34 45 48 50 68 70 88 94 100 100 100
73 67 57 48 38 34 40 39 37 40 34 29 29 30 34 40 38 49 46 61 71 76 81 88 98 100 100
82 90 82 74 64 55 42 41 50 46 44 43 51 39 39 44 42 56 56 63 75 74 71 88 96 93 91
84 100 100 86 85 77 69 60 58 54 62 71 62 55 46 48 51 67 66 63 66 72 77 87 89 87 91
50 92 85 95 100 96 82 74 72 77 82 91 75 64 56 57 64 76 70 67 77 87 86 84 84 87 90
49 81 76 97 100 100 100 96 97 100 95 98 84 75 63 77 71 77 72 65 66 72 77 80 80 80 89
71 96 89 99 100 100 100 100 100 99 100 100 97 81 70 90 86 86 77 68 64 69 78 81 81 88 98
81 81 99 95 84 100 100 100 100 100 100 100 99 87 78 100 93 93 84 74 74 76 76 82 93 98 100

GFSFLT2_500_rhum_093.txt.gz
RH
96 99 98 96 98 97 96 94 88 70 53 42 22 18 16 13 11 8 8 6 6 5 8 12 16 21 21
96 97 96 95 92 94 89 76 54 43 26 16 16 14 13 11 9 8 7 6 7 8 9 10 14 17 20
96 80 78 72 70 62 50 39 25 15 14 15 13 13 13 10 10 8 8 7 7 8 11 11 13 15 25
90 83 77 60 57 47 34 26 18 14 15 14 15 16 12 12 11 9 9 8 8 9 13 12 13 19 33
98 75 94 95 71 57 45 33 22 18 17 16 17 16 14 14 13 10 10 10 9 14 14 19 18 23 37
100 98 71 87 100 71 55 48 31 24 19 19 21 20 17 16 15 12 12 11 12 18 16 27 23 23 45
66 48 58 55 46 51 54 51 39 36 26 25 28 24 21 19 17 15 14 12 14 17 24 31 30 31 61
61 89 96 74 50 67 86 59 37 33 34 28 29 28 25 22 20 19 18 15 16 19 25 35 42 49 60
58 60 99 100 100 99 86 66 55 45 40 37 33 29 28 26 24 25 25 19 18 22 30 37 50 65 72
69 66 60 55 83 100 99 82 73 50 44 46 41 34 32 30 28 31 30 27 22 26 32 41 67 77 77
54 63 79 80 77 71 69 68 62 56 43 37 36 37 36 37 35 38 41 32 28 31 41 54 78 79 83
27 33 56 86 96 86 71 66 68 62 56 48 34 32 36 40 48 47 49 40 34 43 52 63 76 68 80
11 16 36 68 63 64 66 69 82 78 73 67 49 42 46 51 52 55 55 44 45 54 54 66 66 64 79
16 14 13 21 33 62 78 86 83 90 88 82 72 66 67 67 73 67 60 58 60 64 61 68 75 77 82
23 21 18 18 23 38 64 75 72 95 100 91 87 87 78 80 79 77 71 65 75 79 67 73 82 85 85
31 26 22 20 18 24 37 52 100 98 94 87 100 100 100 99 94 93 81 80 85 82 74 72 73 79 86
45 35 29 25 26 26 29 34 77 99 100 100 100 100 100 100 100 98 89 88 94 92 80 69 73 84 87

GFSFLT2_500_rhum_096.txt.gz
RH
96 97 96 93 85 97 99 97 95 94 94 94 91 87 73 52 34 24 18 13 10 8 6 6 6 7 7
97 97 96 96 96 100 99 97 99 99 98 94 77 56 38 27 14 14 12 10 8 8 7 7 7 9 7
98 97 98 98 100 100 98 98 96 91 75 61 51 40 24 13 13 12 12 10 9 10 9 8 10 10 7
96 98 97 98 98 96 97 97 89 84 70 49 31 20 14 14 13 13 13 12 12 11 10 10 14 9 8
98 98 98 99 96 98 97 92 71 62 57 54 40 31 19 14 14 15 15 14 14 13 13 14 16 9 10
96 100 98 98 99 99 98 100 90 93 100 95 64 44 29 18 16 19 19 17 16 15 15 17 16 11 12
88 90 98 99 100 96 99 97 94 58 52 47 48 42 34 24 20 21 23 21 20 17 16 15 15 14 17
76 86 89 59 92 88 90 94 95 96 66 65 69 50 34 30 28 25 26 25 24 20 17 16 17 17 24
65 55 47 52 72 82 98 80 100 100 99 95 93 68 51 41 37 33 28 28 26 23 21 19 20 21 29
75 70 100 79 100 100 100 96 100 98 100 99 99 87 82 56 44 41 37 32 29 28 27 26 24 27 32
61 70 78 82 76 98 88 100 76 93 94 84 79 74 62 57 54 44 38 35 32 32 32 31 32 36 38
20 36 55 72 91 96 90 88 73 65 61 63 66 62 55 58 56 41 37 37 39 39 37 38 40 46 46
20 16 16 24 45 58 66 75 81 76 73 72 69 61 50 58 58 49 40 50 53 52 51 46 50 59 53
27 23 20 18 18 19 32 45 49 52 54 71 71 64 71 71 69 61 55 66 77 61 54 54 64 69 59
33 28 25 23 21 18 18 21 19 34 42 58 65 80 72 84 79 75 71 83 90 72 71 72 80 78 72
45 34 32 30 26 24 21 19 16 20 31 38 51 70 83 89 90 87 92 94 100 93 93 79 88 88 79
80 57 39 34 31 28 26 26 19 17 24 29 42 73 95 100 99 92 97 100 100 100 100 90 86 93 78

GFSFLT2_500_rhum_099.txt.gz
RH
89 90 97 95 89 80 77 97 98 92 90 99 96 98 95 93 95 87 84 48 37 24 14 10 8 9 11
97 99 98 98 100 95 96 98 99 93 94 96 93 89 98 98 98 88 61 39 19 14 10 9 11 12 11
97 97 96 97 98 97 96 93 93 96 100 100 99 96 94 89 66 51 39 21 13 11 11 12 11 11 12
97 96 97 97 96 96 98 98 93 96 98 98 97 96 75 67 56 35 17 13 12 12 12 14 13 12 13
90 96 96 98 99 97 98 98 99 97 99 99 94 88 90 78 55 41 27 18 14 13 14 15 14 14 14
56 62 84 96 95 98 98 97 97 100 98 96 98 97 99 85 78 59 43 30 21 15 15 16 16 16 16
44 56 69 84 96 95 98 98 98 99 99 98 100 98 90 85 56 41 36 29 24 19 17 19 19 20 17
14 32 50 60 78 95 98 97 95 97 100 97 99 90 92 60 59 60 49 33 29 26 29 29 23 22 20
15 16 30 46 53 58 93 98 98 97 98 90 95 96 95 98 99 94 55 50 45 43 38 32 28 25 23
18 14 24 39 56 52 54 84 100 97 100 97 100 95 95 100 100 98 68 63 56 50 42 38 33 29 26
26 21 28 67 73 64 66 66 62 68 76 90 100 100 98 100 99 99 87 60 52 41 44 39 35 32 30
39 38 41 72 91 95 87 96 100 100 100 100 100 100 100 100 98 98 72 48 53 47 46 40 37 36 36
52 45 61 46 99 100 100 96 98 100 98 100 100 100 98 77 66 63 58 51 47 51 47 40 42 46 44
76 57 53 55 66 100 100 100 97 100 96 86 84 95 96 82 67 63 58 58 58 57 49 44 50 52 58
50 79 64 61 63 72 100 82 90 93 73 83 71 67 64 61 58 54 52 64 71 65 53 54 64 68 61
25 67 93 68 71 61 97 100 63 59 73 69 60 50 46 41 41 44 48 70 76 73 67 77 88 78 68
34 29 87 100 79 75 85 76 73 59 70 63 53 43 36 45 61 64 76 81 82 82 83 97 99 87 84